Project

General

Profile

Issues

Filters

Apply Clear

# Project Tracker ID Source Status Priority Standard(s) Subject Updated
6628 IEC 61850 Certificate IEC 61850 Certificate Approved Normal EnOSTM Monitoring & Control 12/09/2023 11:22 AM Actions
6627 IEC 61850 Certificate IEC 61850 Certificate Approved Normal CSC-285 - Multifunction Voltage Protection IED 12/09/2023 11:14 AM Actions
6626 IEC 61850 Certificate IEC 61850 Certificate Approved Normal CSC-283 - Motor Protection IED 01/08/2024 08:34 AM Actions
6625 IEC 61850 Certificate IEC 61850 Certificate Approved Normal CSC-281 Multifunction Feeder Protection LED 12/09/2023 11:10 AM Actions
6624 IEC 61850 Certificate IEC 61850 Certificate Approved Normal CDP0100 12/09/2023 11:02 AM Actions
6623 IEC 61850 Certificate IEC 61850 Certificate Approved Normal CPD0100 12/09/2023 11:03 AM Actions
6603 IEC 61850 Certificate IEC 61850 Certificate Approved Normal BCU 500 02/05/2024 08:52 AM Actions
6602 IEC 61850 Certificate IEC 61850 Certificate Approved Normal GIPAM1000 11/22/2023 07:33 AM Actions
6594 IEC 61850 Certificate IEC 61850 Certificate Approved Normal YH-HSA-OPD 11/09/2023 07:23 AM Actions
6593 IEC 61850 Certificate IEC 61850 Certificate Approved Normal YH-HSA-LID 11/09/2023 07:16 AM Actions
6592 IEC 61850 Certificate IEC 61850 Certificate Approved Normal ZEN-LS002 11/09/2023 07:16 AM Actions
6588 IEC 61850 Certificate IEC 61850 Certificate Approved Normal ECU-4784 11/08/2023 07:11 PM Actions
6587 IEC 61850 Certificate IEC 61850 Certificate Approved Normal ECU-4784 11/08/2023 07:06 PM Actions
6586 IEC 61850 Certificate IEC 61850 Certificate Approved Normal HP-Z8-G4 11/08/2023 07:07 PM Actions
6585 IEC 61850 Certificate IEC 61850 Certificate Approved Normal DW-SPiN-LID 11/08/2023 08:32 AM Actions
6577 IEC 61850 Certificate IEC 61850 Certificate Approved Normal P14DL 11/07/2023 06:34 AM Actions
6576 IEC 61850 Certificate IEC 61850 Certificate Approved Normal ZEN-WT001 11/03/2023 06:14 PM Actions
6575 IEC 61850 Certificate IEC 61850 Certificate Approved Normal ZEN-LS001 11/03/2023 06:15 PM Actions
6574 IEC 61850 Certificate IEC 61850 Certificate Approved Normal WTG001 Hardware Server 11/03/2023 12:59 PM Actions
6552 IEC 61850 Certificate IEC 61850 Certificate Approved Normal P14DZ 10/25/2023 09:42 AM Actions
6551 IEC 61850 Certificate IEC 61850 Certificate Approved Normal STC-K120 10/25/2023 09:23 AM Actions
6550 IEC 61850 Certificate IEC 61850 Certificate Approved Normal VIPAM7000 10/25/2023 09:16 AM Actions
6532 IEC 61850 Certificate IEC 61850 Certificate Approved Normal ZEN-WT001 09/26/2023 09:38 AM Actions
6531 IEC 61850 Certificate IEC 61850 Certificate Approved Normal Superconductivity IED ZEN-LS001 09/26/2023 09:33 AM Actions
6530 IEC 61850 Certificate IEC 61850 Certificate Approved Normal Easergy MiCOM P746 Numerical Busbar Protection 09/26/2023 08:36 AM Actions
6522 IEC 61850 Certificate IEC 61850 Certificate Approved Normal SEL-851 09/12/2023 02:41 PM Actions
6521 IEC 61850 Certificate IEC 61850 Certificate Approved Normal PGC-6060 09/12/2023 02:33 PM Actions
6516 IEC 61850 Certificate IEC 61850 Certificate Approved Normal IM2 09/05/2023 07:49 AM Actions
6515 IEC 61850 Certificate IEC 61850 Certificate Approved Normal PSF640 Feeder Protection and Control 09/03/2023 03:56 PM Actions
6514 IEC 61850 Certificate IEC 61850 Certificate Approved Normal ET-CCI 09/03/2023 03:46 PM Actions
6513 IEC 61850 Certificate IEC 61850 Certificate Approved Normal PowerLogic(TM) P7 09/03/2023 03:39 PM Actions
6506 IEC 61850 Certificate IEC 61850 Certificate Approved Normal SOC-K110 08/23/2023 06:54 AM Actions
6505 IEC 61850 Certificate IEC 61850 Certificate Approved Normal ETR500-FV 08/16/2023 10:56 AM Actions
6504 IEC 61850 Certificate IEC 61850 Certificate Approved Normal SBP-K110 08/16/2023 10:57 AM Actions
6503 IEC 61850 Certificate IEC 61850 Certificate Approved Normal BCU-50-M 08/15/2023 02:26 PM Actions
6502 IEC 61850 Certificate IEC 61850 Certificate Approved Normal Easergy MiCOM P443 Fast Multifunction Distance Protection Relay 08/03/2023 03:39 PM Actions
6501 IEC 61850 Certificate IEC 61850 Certificate Approved Normal K-IED T100 08/03/2023 03:32 PM Actions
6495 IEC 61850 Certificate IEC 61850 Certificate Approved Normal SEL-451-6 07/28/2023 12:45 PM Actions
6494 IEC 61850 Certificate IEC 61850 Certificate Approved Normal SEL-451-5 07/28/2023 12:39 PM Actions
6493 IEC 61850 Certificate IEC 61850 Certificate Approved Normal WAGO 750-8212/0040-0001 07/28/2023 12:31 PM Actions
6492 IEC 61850 Certificate IEC 61850 Certificate Approved Normal PS700 v2 - FACTS Main Controller 07/28/2023 12:32 PM Actions
6487 IEC 61850 Certificate IEC 61850 Certificate Approved Normal Protection IED (SUF-K110) 07/26/2023 10:56 AM Actions
6486 IEC 61850 Certificate IEC 61850 Certificate Approved Normal ECU-4784 07/26/2023 10:35 AM Actions
6485 IEC 61850 Certificate IEC 61850 Certificate Approved Normal ECU-4784 07/26/2023 10:25 AM Actions
6484 IEC 61850 Certificate IEC 61850 Certificate Approved Normal xGrids Transfer DAUMIT_ISD 07/26/2023 10:19 AM Actions
6481 IEC 61850 Certificate IEC 61850 Certificate Approved Normal AXC F 3152 07/19/2023 07:30 AM Actions
6480 IEC 61850 Certificate IEC 61850 Certificate Approved Normal SA IMD YSSMD-7300 07/19/2023 07:22 AM Actions
6479 IEC 61850 Certificate IEC 61850 Certificate Approved Normal SA IMD DAONSYS MSA-SMD-ED2 07/19/2023 08:55 PM Actions
6478 IEC 61850 Certificate IEC 61850 Certificate Approved Normal FTU-R200i 07/19/2023 07:08 AM Actions
6477 IEC 61850 Certificate IEC 61850 Certificate Approved Normal YH-SAMDD 07/19/2023 07:08 AM Actions
6475 IEC 61850 Certificate IEC 61850 Certificate Approved Normal SAM600 Process Interface Unit 07/11/2023 11:15 AM Actions
6474 IEC 61850 Certificate IEC 61850 Certificate Approved Normal SAM600 Process Interface Unit 08/24/2023 11:31 AM Actions
6467 IEC 61850 Certificate IEC 61850 Certificate Approved Normal MRD-HB (101PYA) Biased differential relay 07/10/2023 03:38 PM Actions
6450 IEC 61850 Certificate IEC 61850 Certificate Approved Normal AXRTU62351CCI_UP-DM_DC_MC_UVR-P_Q_F-PMU-BMU-CU_MCE_DCM/ET-CCI 06/22/2023 08:44 AM Actions
6449 IEC 61850 Certificate IEC 61850 Certificate Approved Normal SIPROTEC V4 7SJ80 Overcurrent protection 06/21/2023 10:15 AM Actions
6374 IEC 61850 Certificate IEC 61850 Certificate Approved Normal Protection IED (K-IED BC100) 06/12/2023 09:58 AM Actions
6373 IEC 61850 Certificate IEC 61850 Certificate Approved Normal Protection IED (K-IED V100) 06/12/2023 09:45 AM Actions
6364 IEC 61850 Certificate IEC 61850 Certificate Approved Normal SA-ICD (Substation Automation Information Connecting Device) DW-IPC-A-20000 05/31/2023 11:27 AM Actions
6363 IEC 61850 Certificate IEC 61850 Certificate Approved Normal SA ICD (Substation Automation Information Connecting Device) DW-IPC-A-20000 05/31/2023 11:27 AM Actions
6362 IEC 61850 Certificate IEC 61850 Certificate Approved Normal SA-OPD (Substation Automation Operation Processing Device) Z8 G4 05/31/2023 11:16 AM Actions
6361 IEC 61850 Certificate IEC 61850 Certificate Approved Normal APEX 150 P3E 05/31/2023 11:07 AM Actions
6360 IEC 61850 Certificate IEC 61850 Certificate Approved Normal MPU70 Nexus OnCore Control Module 05/31/2023 11:00 AM Actions
6354 IEC 61850 Certificate IEC 61850 Certificate Approved Normal IED T-IED 170kV 05/24/2023 12:34 PM Actions
6353 IEC 61850 Certificate IEC 61850 Certificate Approved Normal IED T-IED 23kV 05/25/2023 06:29 AM Actions
6352 IEC 61850 Certificate IEC 61850 Certificate Approved Normal PROTECTION IED VIPAM5000-KF PT 05/24/2023 12:16 PM Actions
6351 IEC 61850 Certificate IEC 61850 Certificate Approved Normal PROTECTION IED VIPAM5000-KF V1 05/24/2023 12:11 PM Actions
6349 IEC 61850 Certificate IEC 61850 Certificate Approved Normal Protection IED (SBP-K110) 05/24/2023 11:51 AM Actions
6340 DNP Conformance Certificates DNP Conformance Certificate Approved Normal CYG SUNRI PRS-3351 05/19/2023 10:38 AM Actions
6338 IEC 61850 Certificate IEC 61850 Certificate Approved Normal xGrids Transfer DAUMIT_ISD 05/16/2023 02:33 PM Actions
6337 IEC 61850 Certificate IEC 61850 Certificate Approved Normal Siemens 7SS85 05/16/2023 02:26 PM Actions
6336 IEC 61850 Certificate IEC 61850 Certificate Approved Normal 6MD85 (SIP 5) - BAY CONTROLLER 05/12/2023 06:32 AM Actions
6317 IEC 61850 Certificate IEC 61850 Certificate Approved Normal Siemens 7SL86 04/13/2023 07:26 AM Actions
6315 IEC 61850 Certificate IEC 61850 Certificate Approved Normal SA IMD DW-IPC-A-10000 04/11/2023 07:45 AM Actions
6314 IEC 61850 Certificate IEC 61850 Certificate Approved Normal Protection IED (PAC-XG100) 04/09/2023 07:54 AM Actions
6313 IEC 61850 Certificate IEC 61850 Certificate Approved Normal Protection IED (PAC-XF100) 04/09/2023 07:51 AM Actions
6311 IEC 61850 Certificate IEC 61850 Certificate Approved Normal PSL 603U 04/02/2023 12:12 PM Actions
6310 IEC 61850 Certificate IEC 61850 Certificate Approved Normal MiCOM P40 Agile 03/30/2023 01:41 PM Actions
6309 IEC 61850 Certificate IEC 61850 Certificate Approved Normal MiCOM P40 Agile 03/30/2023 01:37 PM Actions
6308 IEC 61850 Certificate IEC 61850 Certificate Approved Normal K-IED ABK100 03/29/2023 04:55 PM Actions
6307 IEC 61850 Certificate IEC 61850 Certificate Approved Normal (SUR5000-LP 03/29/2023 04:51 PM Actions
6306 IEC 61850 Certificate IEC 61850 Certificate Approved Normal K-IED ABK100 03/29/2023 04:55 PM Actions
6305 IEC 61850 Certificate IEC 61850 Certificate Approved Normal Protection IED (SUR5000-LP) 03/29/2023 04:40 PM Actions
6302 IEC 61850 Certificate IEC 61850 Certificate Approved Normal REC670 Bay control 03/27/2023 10:47 AM Actions
6301 IEC 61850 Certificate IEC 61850 Certificate Approved Normal REC670 Bay control 03/27/2023 10:42 AM Actions
6300 IEC 61850 Certificate IEC 61850 Certificate Approved Normal DW-IPC-A-50000 SA LID (Substation Automation Local Information processing Device) 03/26/2023 10:38 AM Actions
6292 IEC 61850 Certificate IEC 61850 Certificate Approved Normal Siemens 7UT86 TRANSFORMER DIFFERENTIAL PROTECTION 03/17/2023 08:14 AM Actions
6290 IEC 61850 Certificate IEC 61850 Certificate Approved Normal SG B750 03/15/2023 02:49 PM Actions
6289 IEC 61850 Certificate IEC 61850 Certificate Approved Normal PST 671U 03/15/2023 02:44 PM Actions
6288 IEC 61850 Certificate IEC 61850 Certificate Approved Normal HSC RTU for Industrial Automation and Control Systems 03/10/2023 01:33 PM Actions
6287 IEC 61850 Certificate IEC 61850 Certificate Approved Normal Teamware CCI-Central Plant controller 03/10/2023 01:23 PM Actions
6286 IEC 61850 Certificate IEC 61850 Certificate Approved Normal Landis Gyr AG E65C CU-XE Grid Edge Gateway with S650 and E660 03/10/2023 01:24 PM Actions
6285 IEC 61850 Certificate IEC 61850 Certificate Approved Normal Teleport: Real-time controller of energy assets 03/10/2023 01:10 PM Actions
6275 IEC 61850 Certificate IEC 61850 Certificate Approved Normal PSL 641UX 02/28/2023 07:43 AM Actions
6273 IEC 61850 Certificate IEC 61850 Certificate Approved Normal xGrids Transfer KPG-v1 02/24/2023 07:40 AM Actions
6272 IEC 61850 Certificate IEC 61850 Certificate Approved Normal xGrids Transfer KPG-v1 02/24/2023 07:40 AM Actions
6271 IEC 61850 Certificate IEC 61850 Certificate Approved Normal SUR-K220 Protection IED 06/01/2023 07:46 AM Actions
6270 IEC 61850 Certificate IEC 61850 Certificate Approved Normal TC-BCU21 Bay Control Unit (BCU) 02/22/2023 08:01 AM Actions
6264 IEC 61850 Certificate IEC 61850 Certificate Approved Normal SIPROTEC 5 - 7VU85 High Speed Busbar Transfer 02/05/2024 08:52 AM Actions
6261 IEC 61850 Certificate IEC 61850 Certificate Approved Normal xGrids Transfer YH-ISD 02/13/2023 07:18 AM Actions
6238 IEC 61850 Certificate IEC 61850 Certificate Approved Normal HMI VICOM-PES 01/30/2023 08:07 AM Actions
(601-700/2176) Per page: 25, 50, 100

Also available in: Atom CSV PDF